Location: Cruquius
(52.3348°N, 4.6319°E)
Time: 13:23:53
(UTC+00:00)

Cosmos 1328 Rocket - Pass Details

Date: 12 May 2021
Orbit: 600 x 628 km, 82.5° (Epoch: 19 June)

Event Time Altitude Azimuth Distance (km) Brightness Sun altitude
Rises 21:00:30 0° 203° (SSW) 2,901 6.7 -11.5°
Reaches altitude 10° 21:02:47 10° 208° (SSW) 1,997 5.9 -11.7°
Maximum altitude 21:07:07 52° 285° (WNW) 779 4.4 -12.1°
Drops below altitude 10° 21:11:27 10° 3° (N) 1,999 7.0 -12.5°
Sets 21:13:44 0° 8° (N) 2,905 7.8 -12.7°
